This is the latest recevied weather packets stored in our database for station/object N1SU-13. If no packets are shown the sender has not sent any weather packets the latest 10 day(s).
| Time | Temp. | Humidity | Pressure | Rain* | Wind** | Luminosity | Snow |
|---|---|---|---|---|---|---|---|
| 1777886450 | 15° C | 60% | 1008.1 hPa | - | - | - | - |
| 1777885758 | 15° C | 60% | 1008 hPa | - | - | - | - |
| 1777885122 | 15° C | 60% | 1008.1 hPa | - | - | - | - |
| 1777884531 | 15° C | 61% | 1008 hPa | - | - | - | - |
| 1777883843 | 15° C | 60% | 1008 hPa | - | - | - | - |
| 1777883251 | 15.56° C | 60% | 1008 hPa | - | - | - | - |
| 1777882619 | 15.56° C | 61% | 1008.2 hPa | - | - | - | - |
| 1777881930 | 15.56° C | 61% | 1008.2 hPa | - | - | - | - |
| 1777881315 | 15.56° C | 60% | 1008.3 hPa | - | - | - | - |
| 1777880630 | 16.11° C | 60% | 1008.2 hPa | - | - | - | - |
| 1777879979 | 16.11° C | 59% | 1008.3 hPa | - | - | - | - |
| 1777879333 | 16.11° C | 59% | 1008.1 hPa | - | - | - | - |
| 1777878669 | 16.67° C | 59% | 1008.3 hPa | - | - | - | - |
| 1777878085 | 16.67° C | 59% | 1008.2 hPa | - | - | - | - |
| 1777877400 | 16.67° C | 58% | 1008.2 hPa | - | - | - | - |
| 1777876716 | 17.22° C | 59% | 1008.2 hPa | - | - | - | - |
| 1777876142 | 17.22° C | 58% | 1008.3 hPa | - | - | - | - |
| 1777875452 | 17.78° C | 58% | 1008.2 hPa | - | - | - | - |
| 1777874793 | 17.78° C | 57% | 1008.1 hPa | - | - | - | - |
| 1777874141 | 18.33° C | 57% | 1008.2 hPa | - | - | - | - |
| 1777873571 | 18.33° C | 56% | 1008.1 hPa | - | - | - | - |
| 1777872968 | 18.89° C | 56% | 1008.2 hPa | - | - | - | - |
| 1777872352 | 18.89° C | 56% | 1008.2 hPa | - | - | - | - |
| 1777871788 | 19.44° C | 56% | 1008.1 hPa | - | - | - | - |
| 1777871199 | 19.44° C | 55% | 1008.2 hPa | - | - | - | - |
* Rain since midnight (hover to see other rain measurements)
** Current wind speed in m/s (hover to see current wind gust speed)